This is the latest recevied weather packets stored in our database for station/object SQ9SMC-13. If no packets are shown the sender has not sent any weather packets the latest 10 day(s).
| Time | Temp. | Humidity | Pressure | Rain* | Wind** | Luminosity | Snow |
|---|---|---|---|---|---|---|---|
| 1777480204 | 7.22° C | 41% | 1029.4 hPa | 0 mm | - | 58 W/m² | - |
| 1777479903 | 7.22° C | 42% | 1029.3 hPa | 0 mm | - | 67 W/m² | - |
| 1777479602 | 7.22° C | 42% | 1029.5 hPa | 0 mm | - | 76 W/m² | - |
| 1777479306 | 7.22° C | 42% | 1029.4 hPa | 0 mm | - | 73 W/m² | - |
| 1777479003 | 7.22° C | 41% | 1029.4 hPa | 0 mm | - | 57 W/m² | - |
| 1777478705 | 7.22° C | 41% | 1029.4 hPa | 0 mm | - | 58 W/m² | - |
| 1777478403 | 7.78° C | 41% | 1029.5 hPa | 0 mm | - | 48 W/m² | - |
| 1777478102 | 8.89° C | 39% | 1029.5 hPa | 0 mm | - | 115 W/m² | - |
| 1777477804 | 8.89° C | 38% | 1029.2 hPa | 0 mm | - | 181 W/m² | - |
| 1777477503 | 8.33° C | 39% | 1029.2 hPa | 0 mm | - | 204 W/m² | - |
| 1777477204 | 8.33° C | 39% | 1029.2 hPa | 0 mm | - | 207 W/m² | - |
| 1777476903 | 8.33° C | 38% | 1029.4 hPa | 0 mm | - | 188 W/m² | - |
| 1777476605 | 8.33° C | 39% | 1029.5 hPa | 0 mm | - | 193 W/m² | - |
| 1777476303 | 8.33° C | 40% | 1029.4 hPa | 0 mm | - | 205 W/m² | - |
| 1777476005 | 7.78° C | 41% | 1029.5 hPa | 0 mm | - | 61 W/m² | - |
| 1777475704 | 7.78° C | 42% | 1029.2 hPa | 0 mm | - | 119 W/m² | - |
| 1777475403 | 7.78° C | 41% | 1029.3 hPa | 0 mm | - | 267 W/m² | - |
| 1777475104 | 7.78° C | 40% | 1029.5 hPa | 0 mm | - | 237 W/m² | - |
| 1777474803 | 8.33° C | 38% | 1029.4 hPa | 0 mm | - | 114 W/m² | - |
| 1777474504 | 8.33° C | 39% | 1029.3 hPa | 0 mm | - | 105 W/m² | - |
| 1777474204 | 7.78° C | 39% | 1029.4 hPa | 0 mm | - | 315 W/m² | - |
| 1777473904 | 7.78° C | 41% | 1029.4 hPa | 0 mm | - | 69 W/m² | - |
| 1777473603 | 8.33° C | 39% | 1029.4 hPa | 0 mm | - | 82 W/m² | - |
| 1777473303 | 8.89° C | 39% | 1029.4 hPa | 0 mm | - | 224 W/m² | - |
| 1777473003 | 8.33° C | 39% | 1029.2 hPa | 0 mm | - | 385 W/m² | - |
* Rain latest hour (hover to see other rain measurements)
** Current wind speed in m/s (hover to see current wind gust speed)